Location: Sternwarte ZA, Rosenfeld-Brittheim
(48.2889°N, 8.6789°E)
Time: 21:33:08
(UTC+02:00)

ISS - Pass Details

Date: 22 May 2017
Orbit: 402 x 409 km, 51.6° (Epoch: 25 May)

Event Time Altitude Azimuth Distance (km) Brightness Sun altitude
Exits shadow 23:42:39 13° 78° (ENE) 1,281 -1.4 -17.6°
Drops below altitude 10° 23:43:08 10° 75° (ENE) 1,469 -1.1 -17.7°
Sets 23:45:16 0° 69° (ENE) 2,331 0.0 -17.8°
